This demonstration page uses our WeatherBlox Daily Observations layout. Learn more.

Left ArrowRight Arrow

Hourly Observations for October 26, 2019

Temp ( °F °C ) Dew Point ( °F °C ) Humidity (%) Winds ( mph kmh ) Pressure ( in mb ) Visibility ( mi km ) Precip ( " mm )
12:13 am 00:13 Cloudy with Light Rain 68 20 65 18.3 90 90 E 9 15 30.09 1019 8 13 0.01 0.25
12:39 am 00:39 Cloudy with Light Rain 68 20 65 18.3 90 90 VRB 6 9 30.06 1018 10 16 0.02 0.51
12:53 am 00:53 Cloudy with Light Rain 68 20 65 18.3 90 90 E 7 11 30.05 1018 9 14 0.02 0.51
1:03 am 01:03 Cloudy with Light Rain 68 20 66 18.9 93 93 ESE 5 7 30.06 1018 9 14 0.01 0.25
1:15 am 01:15 Cloudy with Light Rain 68 20 66 18.9 93 93 ESE 7 11 30.06 1018 10 16 0.02 0.51
1:35 am 01:35 Cloudy 68 20 66 18.9 93 93 ESE 7 11 30.06 1018 10 16 0.03 0.76
1:53 am 01:53 Cloudy 68 20 66 18.9 93 93 ESE 10 17 30.03 1017 10 16 0.04 1.02
2:18 am 02:18 Cloudy 69 20.6 66 18.9 90 90 ESE 9 15 30.06 1018 10 16 0.02 0.51
2:40 am 02:40 Cloudy 68 20 65 18.3 90 90 ESE 7 11 30.03 1017 10 16 0.02 0.51
2:53 am 02:53 Cloudy 68 20 65 18.3 90 90 ESE 8 13 30.02 1017 10 16 0.02 0.51
3:23 am 03:23 Cloudy 68 20 65 18.3 90 90 ESE 8 13 30.03 1017 10 16 0.00 0.00
3:53 am 03:53 Cloudy 68 20 65 18.3 90 90 E 6 9 30.01 1016 10 16 0.00 0.00
4:53 am 04:53 Cloudy 68 20 64 17.8 87 87 ESE 8 13 29.99 1016 10 16 0.00 0.00
5:53 am 05:53 Cloudy 67 19.4 64 17.8 91 91 E 9 15 29.98 1015 10 16 0.00 0.00
6:50 am 06:50 Cloudy 66 19 64 18 94 94 ESE 8 13 30.00 1016 10 16 0.00 0.00
6:53 am 06:53 Cloudy 67 19.4 64 17.8 91 91 ESE 9 15 29.98 1015 10 16 0.00 0.00
7:25 am 07:25 Cloudy 67 19.4 64 17.8 91 91 ESE 8 13 30.00 1016 10 16 0.00 0.00
7:35 am 07:35 Cloudy 67 19.4 64 17.8 91 91 E 6 9 30.00 1016 10 16 0.00 0.00
7:53 am 07:53 Cloudy 67 19.4 64 17.8 91 91 VRB 6 9 29.97 1015 10 16 0.00 0.00
8:53 am 08:53 Cloudy 67 19.4 64 17.8 91 91 ESE 7 11 29.95 1014 10 16 0.00 0.00
9:31 am 09:31 Cloudy 68 20 64 17.8 87 87 SE 10 17 30.00 1016 10 16 0.00 0.00
9:53 am 09:53 Cloudy 69 20.6 64 17.8 84 84 SE 7 11 29.97 1015 10 16 0.00 0.00
10:53 am 10:53 Cloudy 69 20.6 64 17.8 84 84 SE 10 17 29.96 1015 10 16 0.00 0.00
11:53 am 11:53 Cloudy 71 21.7 64 17.8 79 79 ESE 12 19 29.93 1014 10 16 0.00 0.00
12:53 pm 12:53 Cloudy with Light Rain 70 21.1 65 18.3 84 84 SE 8 13 29.92 1013 9 14 0.00 0.00
1:53 pm 13:53 Cloudy 71 21.7 65 18.3 81 81 SE 10 17 29.87 1012 10 16 0.00 0.00
2:53 pm 14:53 Cloudy 73 22.8 66 18.9 79 79 SSE 10 17 29.85 1011 10 16 0.00 0.00
3:53 pm 15:53 Cloudy 74 23.3 66 18.9 76 76 ESE 8 13 29.82 1010 10 16 0.00 0.00
4:53 pm 16:53 Cloudy 74 23.3 67 19.4 79 79 ESE 6 9 29.80 1009 10 16 0.00 0.00
5:11 pm 17:11 Cloudy with Light Rain 74 23.3 67 19.4 79 79 SE 7 11 29.80 1009 2 3 0.00 0.00
5:18 pm 17:18 Cloudy with Light Rain 73 22.8 68 20 84 84 ESE 5 7 29.80 1009 3 5 0.00 0.00
5:53 pm 17:53 Cloudy with Light Rain 72 22.2 68 20 87 87 VRB 7 11 29.79 1009 10 16 0.01 0.25
6:32 pm 18:32 Cloudy 72 22.2 69 20.6 91 91 ESE 8 13 29.77 1008 10 16 0.00 0.00
6:53 pm 18:53 Cloudy 72 22.2 69 20.6 91 91 SE 10 17 29.79 1009 10 16 0.00 0.00
7:53 pm 19:53 Cloudy with Light Rain 72 22.2 69 20.6 91 91 SW 3 6 29.79 1009 10 16 0.00 0.00
8:04 pm 20:04 Cloudy 72 22.2 69 20.6 91 91 VRB 5 7 29.77 1008 10 16 0.00 0.00
8:53 pm 20:53 Cloudy 72 22.2 69 20.6 91 91 SSE 7 11 29.78 1009 10 16 0.00 0.00
9:53 pm 21:53 Cloudy 73 22.8 69 20.6 87 87 SSE 10 17 29.78 1008 10 16 0.00 0.00
10:53 pm 22:53 Cloudy 74 23.3 69 20.6 85 85 SSE 10 17 29.78 1009 10 16 0.00 0.00
11:37 pm 23:37 Cloudy 74 23.3 69 20.6 85 85 SSE 14 22 29.77 1008 10 16 0.00 0.00
11:53 pm 23:53 Cloudy 74 23.3 69 20.6 85 85 SSE 17 28 29.78 1008 10 16 0.00 0.00

Powered by AerisWeather